This is the latest recevied weather packets stored in our database for station/object KY4OP-13. If no packets are shown the sender has not sent any weather packets the latest 10 day(s).
| Time | Temp. | Humidity | Pressure | Rain* | Wind** | Luminosity | Snow |
|---|---|---|---|---|---|---|---|
| 1777984077 | 14.44° C | 72% | 1015.5 hPa | 0 mm | - | - | - |
| 1777983775 | 14.44° C | 71% | 1015.6 hPa | 0 mm | - | - | - |
| 1777983471 | 14.44° C | 74% | 1015.5 hPa | 0 mm | - | - | - |
| 1777983168 | 14.44° C | 73% | 1015.5 hPa | 0 mm | - | - | - |
| 1777982864 | 13.89° C | 74% | 1015.4 hPa | 0 mm | - | - | - |
| 1777982560 | 13.89° C | 75% | 1015.2 hPa | 0 mm | - | - | - |
| 1777982259 | 13.33° C | 77% | 1015.2 hPa | 0 mm | - | - | - |
| 1777981957 | 12.78° C | 77% | 1015 hPa | 0 mm | - | - | - |
| 1777981654 | 12.78° C | 77% | 1015.2 hPa | 0 mm | - | - | - |
| 1777981350 | 13.33° C | 77% | 1015.4 hPa | 0 mm | - | - | - |
| 1777981047 | 13.33° C | 77% | 1015.3 hPa | 0 mm | - | - | - |
| 1777980743 | 12.78° C | 78% | 1015.2 hPa | 0 mm | - | - | - |
| 1777980440 | 12.78° C | 77% | 1015.1 hPa | 0 mm | - | - | - |
| 1777980137 | 12.78° C | 77% | 1015.3 hPa | 0 mm | - | - | - |
| 1777979832 | 12.78° C | 79% | 1014.9 hPa | 0 mm | - | - | - |
| 1777979528 | 12.22° C | 80% | 1015.1 hPa | 0 mm | - | - | - |
| 1777979224 | 12.22° C | 81% | 1015.1 hPa | 0 mm | - | - | - |
| 1777978922 | 11.67° C | 81% | 1014.9 hPa | 0 mm | - | - | - |
| 1777978618 | 11.67° C | 81% | 1014.9 hPa | 0 mm | - | - | - |
| 1777978314 | 11.67° C | 81% | 1014.8 hPa | 0 mm | - | - | - |
| 1777978011 | 11.67° C | 83% | 1014.8 hPa | 0 mm | - | - | - |
| 1777977709 | 11.11° C | 83% | 1014.7 hPa | 0 mm | - | - | - |
| 1777977404 | 11.11° C | 83% | 1014.6 hPa | 0 mm | - | - | - |
| 1777977102 | 11.11° C | 83% | 1014.4 hPa | 0 mm | - | - | - |
| 1777976800 | 11.67° C | 83% | 1014.7 hPa | 0 mm | - | - | - |
* Rain latest hour (hover to see other rain measurements)
** Current wind speed in m/s (hover to see current wind gust speed)